STARLINK-32403, 61629

Orbit data source: Space-Track

STARLINK-32403, 61629 is a payload satellite owned by SpaceX/Seattle (US) in LEO that was launched on Wed, 23 Oct 2024 UTC via an FALCON 9 launch vehicle from the Air Force Eastern Test Range (AFETR). Payload-class satellites include a variety of spacecraft equipped with specific instruments for various scientific and technological missions. These include communications satellites like Starlink; space stations such as the ISS; scientific satellites like the Hubble; Earth observation satellites from companies like Planet Labs, Umbra, and HawkEye 360; GPS; miniature CubeSats for education and research; and military/defense satellites.

Loading next visibility...
Identifier
61629, 2024-191J
Orbit
LEO
Last TLE update
14 hours ago
Origin
Manufacturer
SpaceX/Seattle
Mission
Operational Commercial Communications
Bus & Motor
STARLINK V2M, Unknown motor
Mass
730 kg wet, ~700 kg dry
Launch date (UTC)
2024-10-23 (9 months ago)
Launch vehicle
FALCON 9
Launch site
Air Force Eastern Test Range (AFETR)
Object type
Payload
Rocket body
Debris
Shape & HBR
Box + 2 Pan, 29 m
Radar Cross Section
36.964 m², Large (>1 m²)

Expand to show TLE details & history

TLE from 14 hours ago
0 STARLINK-32403
1 61629U 24191J   25191.41309696  .00001837  00000-0  76258-4 0  9998
2 61629  43.0015  82.7296 0001601 276.6054  83.4615 15.27576281 40488
Epoch: 2025-07-10T09:54Z
TLE epoch observation values (Epoch: 2025-07-10T09:54:51.577Z)
Latitude
-0.00004°
Longitude
5.43492°
Altitude
482.711 km
Speed
7.626 km/s
True Right ascension
05h 30m 55s
True Declination
0° 00' 00"
Sunlit
Object was in daylight at epoch
Visualization orbit readout
Latitude
21.16144°
Longitude
26.45832°
Altitude
482.899 km
Speed
7.627 km/s
Apparent Right ascension
04h 15m 06s
Apparent Declination
-12° 00' 01"
Sunlit
Object is in daylight
Visualization observer readout
Local Sidereal Time
12:26:45
Azimuth
282.469° WNW
Elevation
-32.756°
Doppler factor
1
Orbital elements
Apogee altitude
486.104 km
Perigee altitude
483.906 km
Semi-major axis
6,863.142 km
Eccentricity
0.00016
Inclination
43.0015°
RAAN
82.7296°
Arg. of periapsis
276.6054°
True anomaly
Unknown
Mean anomaly
83.4615°
Eccentric anomaly
Unknown
Mean motion
3.81732 °/min
Orbital period
94.31 mins
BSTAR
0.000076258
Loading maneuver chart data...
Loading SW <> Apogee altitude chart data...
Loading historical data...
Loading historical data...
Loading historical data...
Loading historical data...
Loading historical data...
Loading historical data...
Loading historical data...

STARLINK-32403 Visibility forecast

Observer location: undefined°, undefined°

Span
Click to sort rows by Start time (UTC) header in descending order
Start Az.
Max El. time (UTC)
Max El. Az.
Max El.
End time (UTC)
End Az.
7 mins2025-07-11 00:26:34.438Z289.007° WNW2025-07-11 00:30:34.438Z70.694° E42.959°2025-07-11 00:33:34.438Z102.18° ESE
4 mins2025-07-11 02:07:34.438Z249.662° W2025-07-11 02:08:34.438Z224.299° SW25.423°2025-07-11 02:11:34.438Z156.63° SSE
6 mins2025-07-11 20:41:34.438Z246.511° WSW2025-07-11 20:44:34.438Z89.643° E43.102°2025-07-11 20:47:34.438Z72.835° E
5 mins2025-07-11 22:21:34.438Z293.574° NW2025-07-11 22:23:34.438Z15.733° NNE37.602°2025-07-11 22:26:34.438Z73.769° E
5 mins2025-07-12 00:00:34.438Z293.263° NW2025-07-12 00:02:34.438Z34.728° NE44.061°2025-07-12 00:05:34.438Z101.069° ESE
|